Zurück zum Katalog

SL-8 DEB

AktivPO
NORAD 21091·DEBRIS·🇷🇺 Russia

Gestartet Feb 5, 1991 von Plesetsk Cosmodrome

Loading…

Nächste Überflüge (nächste 24 Stunden)

TLE

AktuellSource: Space-Track

Epoche: Sep 14, 2026, 04:17 UTC

1 21091U 91007C   26257.17895741  .00000179  00000-0  15490-3 0  9993
2 21091  82.9303 216.0512 0026456 202.4409 171.2157 13.81058488791413

Verfolge SL-8 DEB in Echtzeit mit AllMySat

Download on the App Store